Location: Unspecified
(0.0000°N, 0.0000°E)
Time: 15:53:56
(UTC+00:00)

Transit 2A - All Passes

Search period start: 04 August 2015 00:00
Search period end: 14 August 2015 00:00
Orbit: 597 x 963 km, 66.7° (Epoch: 03 August)

Date Brightness Start Highest point End Pass type
(mag) Time Alt. Az. Time Alt. Az. Time Alt. Az.
04 Aug - 04:52:14 10° SSW 04:58:36 78° ESE 05:04:52 10° NNE visible
04 Aug - 17:29:08 10° NW 17:32:54 29° WSW 17:36:41 10° S daylight
05 Aug - 04:18:40 10° S 04:24:46 50° ESE 04:30:50 10° NE visible
05 Aug - 06:04:20 10° WSW 06:08:02 15° WNW 06:11:15 10° NW daylight
05 Aug - 16:54:52 10° NNW 16:59:04 54° WSW 17:03:21 10° S daylight
06 Aug - 03:45:26 10° S 03:50:54 32° ESE 03:56:27 10° NE visible
06 Aug - 05:29:00 10° WSW 05:34:07 24° WNW 05:38:55 10° NNW visible
06 Aug - 16:21:00 10° NNW 16:25:17 78° ENE 16:29:40 10° SSE daylight
07 Aug - 03:12:38 10° SSE 03:16:59 20° ESE 03:21:37 10° ENE visible
07 Aug - 04:54:22 10° SW 05:00:15 38° WNW 05:05:55 10° N visible
07 Aug - 15:47:28 10° N 15:51:29 40° ENE 15:55:37 10° SE daylight
08 Aug - 02:40:50 10° SE 02:43:01 12° ESE 02:45:43 10° E visible
08 Aug - 04:20:09 10° SSW 04:26:25 60° WNW 04:32:32 10° N visible
08 Aug - 15:14:22 10° NNE 15:17:39 22° ENE 15:21:07 10° ESE daylight
08 Aug - 16:58:25 10° W 17:00:44 14° WSW 17:02:50 10° SW daylight
09 Aug - 03:46:13 10° SSW 03:52:37 88° ESE 03:58:51 10° NNE visible
09 Aug - 14:42:13 10° NE 14:43:47 12° ENE 14:45:39 10° E daylight
09 Aug - 16:23:15 10° NW 16:26:50 24° WSW 16:30:23 10° SSW daylight
10 Aug - 03:12:34 10° S 03:18:47 57° ESE 03:24:54 10° NNE visible
10 Aug - 04:59:05 10° W 05:02:04 13° WNW 05:04:30 10° NW visible
10 Aug - 15:48:51 10° NW 15:52:58 45° WSW 15:57:12 10° S daylight
11 Aug - 02:39:13 10° S 02:44:56 36° ESE 02:50:38 10° NE visible
11 Aug - 04:23:21 10° WSW 04:28:08 21° WNW 04:32:32 10° NNW visible
11 Aug - 15:14:52 10° NNW 15:19:10 87° WSW 15:23:36 10° SSE daylight
12 Aug - 02:06:16 10° SSE 02:11:01 23° ESE 02:15:57 10° ENE visible
12 Aug - 03:48:34 10° SW 03:54:15 33° WNW 03:59:41 10° N visible
12 Aug - 14:41:14 10° N 14:45:22 48° ENE 14:49:39 10° SE daylight
13 Aug - 01:34:03 10° SE 01:37:03 14° ESE 01:40:31 10° E night (unlit)
13 Aug - 03:14:13 10° SW 03:20:25 52° WNW 03:26:24 10° N visible
13 Aug - 14:08:00 10° NNE 14:11:33 26° ENE 14:15:17 10° SE daylight
13 Aug - 15:53:02 10° W 15:54:40 11° WSW 15:56:01 10° SW daylight
